Sarasota, FL

11:08 PM EDT on June 26, 2017 (GMT -0400)
Sarasota-bradenton

Weather History for KSRQ - March, 2012

Change the Weather History Date:

Sunday, March 11, 2012

  Actual Average Record
Temperature  
Mean Temperature 77 °F 66 °F  
Max Temperature 85 °F 76 °F 86 °F (1973)
Min Temperature 68 °F 56 °F 37 °F (1961)
Degree Days  
Heating Degree Days 0 2  
Month to date heating degree days 7 27  
Since 1 July heating degree days 205 445  
Cooling Degree Days 12 3  
Month to date cooling degree days 77 33  
Year to date cooling degree days 256 137  
Growing Degree Days 26 (Base 50)    
Moisture  
Dew Point 65 °F    
Average Humidity 79    
Maximum Humidity 90    
Minimum Humidity 48    
Precipitation  
Precipitation 0.25 in 0.14 in 1.01 in (1960)
Month to date precipitation 0.25 1.50  
Year to date precipitation 1.98 6.69  
Sea Level Pressure  
Sea Level Pressure 30.22 in    
Wind  
Wind Speed 10 mph (East)    
Max Wind Speed 20 mph    
Max Gust Speed 25 mph    
Visibility 10 miles    
Events Rain    
T = Trace of Precipitation, MM = Missing Value Source: NWS Daily Summary

Daily Weather History Graph

Daily Weather History Graph

Search for Another Location

Airport or City:

Trip Planner

Search our weather history database for the weather conditions in past years. The results will help you decide how hot, cold, wet, or windy it might be!

Date:

Astronomy

Mar. 11, 2012 Rise Set
Actual Time 7:43 AM EDT 7:36 PM EDT
Civil Twilight 7:20 AM EDT 8:00 PM EDT
Nautical Twilight 6:53 AM EDT 8:27 PM EDT
Astronomical Twilight 6:26 AM EDT 8:54 PM EDT
Moon 11:30 PM EDT (3/11) 9:44 AM EDT (3/11)
Length of Visible Light 12h 40m
Length of Day
11h 53m
Waning Gibbous, 85% of the Moon is Illuminated
Mar 11
Waning Gibbous
Mar 14
Last Quarter
Mar 22
New
Mar 30
First Quarter
Apr 6
Full

Hourly Weather History & Observations

Time (EDT) Temp. Heat Index Dew Point Humidity Pressure Visibility Wind Dir Wind Speed Gust Speed Precip Events Conditions
12:53 AM 69.1 °F - 64.9 °F 87% 30.19 in 10.0 mi ENE 10.4 mph - N/A   Clear
1:21 AM 69.8 °F - 64.4 °F 83% 30.19 in 10.0 mi ENE 9.2 mph - N/A   Scattered Clouds
1:53 AM 68.0 °F - 64.9 °F 90% 30.18 in 10.0 mi ENE 9.2 mph - N/A   Partly Cloudy
3:15 AM 68.0 °F - 64.4 °F 88% 30.18 in 10.0 mi NE 6.9 mph - N/A   Mostly Cloudy
3:53 AM 68.0 °F - 64.9 °F 90% 30.17 in 10.0 mi ENE 6.9 mph - N/A   Overcast
4:53 AM 68.0 °F - 64.9 °F 90% 30.16 in 10.0 mi ENE 8.1 mph - N/A   Mostly Cloudy
5:51 AM 68.0 °F - 64.4 °F 88% 30.18 in 10.0 mi ENE 8.1 mph - N/A   Scattered Clouds
5:53 AM 68.0 °F - 64.9 °F 90% 30.18 in 10.0 mi ENE 9.2 mph - N/A   Scattered Clouds
6:53 AM 68.0 °F - 64.9 °F 90% 30.19 in 10.0 mi ENE 8.1 mph - N/A   Scattered Clouds
7:53 AM 68.0 °F - 64.4 °F 88% 30.22 in 10.0 mi ENE 8.1 mph - N/A   Clear
8:28 AM 69.8 °F - 66.2 °F 88% 30.24 in 10.0 mi East 6.9 mph - N/A   Partly Cloudy
8:53 AM 70.0 °F - 66.0 °F 87% 30.25 in 10.0 mi ENE 9.2 mph - N/A   Clear
9:11 AM 71.6 °F - 66.2 °F 83% 30.25 in 10.0 mi East 10.4 mph - N/A   Scattered Clouds
9:53 AM 73.9 °F - 66.0 °F 76% 30.25 in 10.0 mi East 11.5 mph - N/A   Scattered Clouds
10:53 AM 79.0 °F - 64.9 °F 62% 30.27 in 10.0 mi ESE 11.5 mph - N/A   Partly Cloudy
11:53 AM 79.0 °F - 63.0 °F 58% 30.26 in 10.0 mi East 11.5 mph - N/A   Scattered Clouds
12:53 PM 84.0 °F 84.9 °F 63.0 °F 49% 30.25 in 10.0 mi East 8.1 mph - N/A   Scattered Clouds
1:53 PM 82.4 °F 83.4 °F 62.6 °F 51% 30.22 in 10.0 mi SSE 8.1 mph - N/A   Mostly Cloudy
2:53 PM 77.0 °F - 64.9 °F 66% 30.20 in 10.0 mi WSW 11.5 mph - N/A   Overcast
3:53 PM 78.1 °F - 66.0 °F 66% 30.19 in 10.0 mi WNW 9.2 mph - N/A   Mostly Cloudy
4:53 PM 75.9 °F - 68.0 °F 76% 30.19 in 10.0 mi WNW 8.1 mph - 0.00 in Rain Light Rain
5:53 PM 73.0 °F - 68.0 °F 84% 30.19 in 10.0 mi Calm Calm - 0.02 in   Overcast
6:53 PM 73.9 °F - 66.0 °F 76% 30.19 in 10.0 mi East 6.9 mph - 0.21 in Rain Light Rain
7:53 PM 72.0 °F - 66.0 °F 81% 30.21 in 10.0 mi East 12.7 mph - 0.02 in   Overcast
8:53 PM 71.6 °F - 64.4 °F 78% 30.23 in 10.0 mi East 12.7 mph 21.9 mph N/A   Overcast
9:53 PM 71.1 °F - 64.9 °F 81% 30.24 in 10.0 mi East 15.0 mph 24.2 mph N/A   Overcast
10:00 PM 71.6 °F - 64.4 °F 78% 30.24 in 10.0 mi East 15.0 mph - N/A   Overcast
10:19 PM 71.6 °F - 64.4 °F 78% 30.24 in 10.0 mi East 13.8 mph - N/A   Overcast
10:48 PM 71.6 °F - 64.4 °F 78% 30.25 in 10.0 mi East 13.8 mph 21.9 mph N/A   Overcast
10:53 PM 70.0 °F - 64.9 °F 84% 30.25 in 10.0 mi East 13.8 mph 21.9 mph N/A   Overcast
11:53 PM 70.0 °F - 64.0 °F 81% 30.25 in 10.0 mi East 12.7 mph - N/A   Overcast
12:53 AM 69.8 °F - 64.4 °F 83% 30.25 in 10.0 mi East 11.5 mph - N/A   Overcast